STARLINK-1085 (44963 NORAD) Tracking and Keplerian Element Data

This shows tracking and keplerian element data for the satellite.

Feedback or suggestion? Click here.




ElementValue
Catalog44963
NameSTARLINK-1085
Epoch Orbit2964
Epoch Day193.91667824
Epoch Year2020
RAAN224.7153
Inclination53.0006
Eccentricity0.0001316
Argument of Perigee106.2626
Mean Anonmoly239.2625
Mean Motion15.05561808
Decay Rate0.00035053
L11 44963U 20001BB 20193.91667824 .00035053 00000-0 24142-2 0 9998
L22 44963 53.0006 224.7153 0001316 106.2626 239.2625 15.05561808 29649

Live tracking and technical data element details for STARLINK-1085 (NORAD 44963). STARLINK-1085 can be tracked NOW for your location showing map with azimuth and elevation plus other details from your city location.

Track the satellite on the map from your city or location and see movement details for azimuth, elevation, latitude, longitude, range, height, and movement on the map or in text.







IsCatalogInMostPopularTable: catalog: 44963, numindb: 39
Update: records affected: 1



GetName: 44963 STARLINK-1085

Hit Count: updated at: Mon, 13 Jul 2020 03:53:35 GMT